| time (UTC) | temp F | wind direction | speed MPH | gust MPH | rain 1hr in | rain 24hr in | rain mn in | humidity % | barometer mb |
| 20260904060034 | 65 | 49 | 0.0 | 6.0 | 0.02 | 0.11 | 0.02 | 96 | 1011.3 |
| 20260904054533 | 65 | 5 | 1.0 | 10.0 | 0.03 | 0.11 | 0.02 | 96 | 1011.0 |
| 20260904053033 | 65 | 41 | 3.0 | 11.0 | 0.07 | 0.11 | 0.02 | 96 | 1011.1 |
| 20260904051529 | 64 | 80 | 0.0 | 7.0 | 0.07 | 0.11 | 0.02 | 95 | 1011.5 |
| 20260904050026 | 65 | 23 | 1.0 | 24.0 | 0.09 | 0.09 | 0.00 | 94 | 1011.6 |
| 20260904044526 | 66 | 331 | 9.0 | 16.0 | 0.08 | 0.08 | 0.08 | 94 | 1011.4 |
| 20260904043025 | 66 | 311 | 5.0 | 15.0 | 0.04 | 0.04 | 0.04 | 93 | 1011.5 |
| 20260904041525 | 67 | 326 | 2.0 | 5.0 | 0.04 | 0.04 | 0.04 | 94 | 1011.2 |
| 20260904040024 | 67 | 257 | 3.0 | 7.0 | 0.00 | 0.00 | 0.00 | 93 | 1011.2 |
| 20260904034527 | 67 | 55 | 0.0 | 0.0 | 0.00 | 0.00 | 0.00 | 92 | 1010.5 |
| 20260904033034 | 67 | 54 | 0.0 | 1.0 | 0.00 | 0.00 | 0.00 | 92 | 1010.8 |
| 20260904031522 | 67 | 66 | 0.0 | 2.0 | 0.00 | 0.00 | 0.00 | 91 | 1010.7 |
| 20260904030022 | 68 | 66 | 0.0 | 0.0 | 0.00 | 0.00 | 0.00 | 90 | 1010.5 |
| 20260904024522 | 68 | 66 | 0.0 | 0.0 | 0.00 | 0.00 | 0.00 | 89 | 1010.2 |
| 20260904023021 | 68 | 66 | 0.0 | 0.0 | 0.00 | 0.00 | 0.00 | 88 | 1010.1 |
| 20260904021522 | 69 | 66 | 0.0 | 3.0 | 0.00 | 0.00 | 0.00 | 88 | 1010.0 |
| 20260904020020 | 69 | 74 | 0.0 | 4.0 | 0.00 | 0.00 | 0.00 | 88 | 1010.0 |
| 20260904014519 | 69 | 67 | 4.0 | 10.0 | 0.00 | 0.00 | 0.00 | 89 | 1009.8 |
| 20260904013019 | 69 | 87 | 2.0 | 8.0 | 0.00 | 0.00 | 0.00 | 88 | 1010.2 |
| 20260904011518 | 69 | 66 | 2.0 | 7.0 | 0.00 | 0.00 | 0.00 | 88 | 1010.0 |
| 20260904010018 | 69 | 48 | 4.0 | 10.0 | 0.00 | 0.00 | 0.00 | 88 | 1009.8 |
| 20260904004517 | 69 | 52 | 0.0 | 8.0 | 0.00 | 0.00 | 0.00 | 88 | 1010.1 |
| 20260904003017 | 69 | 74 | 2.0 | 8.0 | 0.00 | 0.00 | 0.00 | 87 | 1010.0 |
| 20260904001517 | 69 | 59 | 4.0 | 11.0 | 0.00 | 0.00 | 0.00 | 86 | 1010.0 |
| 20260904000016 | 69 | 16 | 2.0 | 14.0 | 0.00 | 0.00 | 0.00 | 84 | 1009.9 |
| 20260903234515 | 70 | 62 | 5.0 | 15.0 | 0.00 | 0.00 | 0.00 | 83 | 1009.9 |
| 20260903233015 | 70 | 25 | 7.0 | 17.0 | 0.00 | 0.00 | 0.00 | 82 | 1009.9 |
| 20260903231514 | 70 | 85 | 6.0 | 15.0 | 0.00 | 0.00 | 0.00 | 81 | 1009.9 |
| 20260903230025 | 70 | 63 | 9.0 | 16.0 | 0.00 | 0.00 | 0.00 | 80 | 1010.1 |
| 20260903224512 | 70 | 58 | 3.0 | 10.0 | 0.00 | 0.00 | 0.00 | 81 | 1010.4 |
| 20260903223011 | 70 | 89 | 5.0 | 15.0 | 0.00 | 0.00 | 0.00 | 81 | 1010.4 |
| 20260903221513 | 70 | 49 | 5.0 | 14.0 | 0.00 | 0.00 | 0.00 | 80 | 1010.5 |
| 20260903220011 | 71 | 63 | 6.0 | 16.0 | 0.00 | 0.00 | 0.00 | 79 | 1010.3 |
| 20260903214518 | 71 | 45 | 5.0 | 15.0 | 0.00 | 0.00 | 0.00 | 79 | 1010.7 |
| 20260903213018 | 71 | 54 | 8.0 | 14.0 | 0.00 | 0.00 | 0.00 | 79 | 1010.5 |
| 20260903211509 | 71 | 77 | 7.0 | 13.0 | 0.00 | 0.00 | 0.00 | 80 | 1010.6 |
| 20260903210009 | 70 | 46 | 9.0 | 14.0 | 0.00 | 0.00 | 0.00 | 81 | 1010.7 |
| 20260903204508 | 71 | 47 | 5.0 | 12.0 | 0.00 | 0.00 | 0.00 | 81 | 1010.8 |
| 20260903203010 | 71 | 37 | 4.0 | 12.0 | 0.00 | 0.00 | 0.00 | 81 | 1010.9 |
| 20260903201506 | 71 | 30 | 6.0 | 14.0 | 0.00 | 0.00 | 0.00 | 79 | 1010.8 |
| 20260903200007 | 72 | 44 | 8.0 | 15.0 | 0.00 | 0.00 | 0.00 | 78 | 1010.6 |
| 20260903194505 | 72 | 68 | 7.0 | 16.0 | 0.00 | 0.00 | 0.00 | 76 | 1010.6 |
| 20260903193004 | 74 | 41 | 3.0 | 14.0 | 0.00 | 0.00 | 0.00 | 75 | 1010.7 |
| 20260903191502 | 73 | 72 | 9.0 | 17.0 | 0.00 | 0.00 | 0.00 | 74 | 1010.8 |
| 20260903190002 | 73 | 85 | 7.0 | 15.0 | 0.00 | 0.00 | 0.00 | 75 | 1011.0 |
| 20260903184601 | 73 | 72 | 8.0 | 16.0 | 0.00 | 0.00 | 0.00 | 74 | 1010.9 |
| 20260903183059 | 73 | 39 | 9.0 | 16.0 | 0.00 | 0.00 | 0.00 | 74 | 1011.2 |
| 20260903181606 | 73 | 77 | 7.0 | 15.0 | 0.00 | 0.00 | 0.00 | 75 | 1011.3 |
| 20260903174557 | 72 | 80 | 9.0 | 20.0 | 0.00 | 0.00 | 0.00 | 75 | 1011.5 |
| 20260903173102 | 73 | 351 | 8.0 | 16.0 | 0.00 | 0.00 | 0.00 | 74 | 1011.6 |
| 20260903171553 | 73 | 60 | 9.0 | 14.0 | 0.00 | 0.00 | 0.00 | 73 | 1011.8 |
| 20260903170146 | 74 | 33 | 3.0 | 12.0 | 0.00 | 0.00 | 0.00 | 72 | 1011.9 |
| 20260903164552 | 73 | 66 | 8.0 | 15.0 | 0.00 | 0.00 | 0.00 | 73 | 1012.1 |
| 20260903163047 | 73 | 341 | 5.0 | 11.0 | 0.00 | 0.00 | 0.00 | 75 | 1012.2 |
| 20260903161558 | 73 | 66 | 3.0 | 12.0 | 0.00 | 0.00 | 0.00 | 73 | 1012.2 |
| 20260903160046 | 72 | 89 | 7.0 | 12.0 | 0.00 | 0.00 | 0.00 | 72 | 1012.2 |
| 20260903154551 | 72 | 85 | 5.0 | 11.0 | 0.00 | 0.00 | 0.00 | 73 | 1012.6 |
| 20260903153040 | 72 | 70 | 3.0 | 10.0 | 0.00 | 0.00 | 0.00 | 72 | 1012.5 |
| 20260903151547 | 72 | 29 | 2.0 | 9.0 | 0.00 | 0.00 | 0.00 | 76 | 1012.4 |
| 20260903150041 | 71 | 77 | 5.0 | 8.0 | 0.00 | 0.00 | 0.00 | 74 | 1012.4 |
| 20260903144534 | 70 | 16 | 2.0 | 7.0 | 0.00 | 0.00 | 0.00 | 78 | 1012.4 |
| 20260903143034 | 70 | 54 | 5.0 | 9.0 | 0.00 | 0.00 | 0.00 | 76 | 1012.4 |
| 20260903141530 | 70 | 46 | 1.0 | 7.0 | 0.00 | 0.00 | 0.00 | 80 | 1012.5 |
| 20260903140037 | 69 | 69 | 3.0 | 6.0 | 0.00 | 0.00 | 0.00 | 84 | 1012.6 |
| 20260903134519 | 66 | 35 | 2.0 | 5.0 | 0.00 | 0.00 | 0.00 | 94 | 1012.7 |
| 20260903133015 | 63 | 69 | 0.0 | 3.0 | 0.00 | 0.00 | 0.00 | 98 | 1012.7 |
| 20260903131510 | 62 | 69 | 0.0 | 0.0 | 0.00 | 0.00 | 0.00 | 98 | 1012.7 |
| 20260903130005 | 59 | 69 | 0.0 | 0.0 | 0.00 | 0.00 | 0.00 | 98 | 1012.7 |
| 20260903124503 | 58 | 69 | 0.0 | 0.0 | 0.00 | 0.00 | 0.00 | 98 | 1012.7 |
| 20260903123001 | 56 | 69 | 0.0 | 0.0 | 0.00 | 0.00 | 0.00 | 97 | 1012.5 |
| 20260903121557 | 54 | 69 | 0.0 | 0.0 | 0.00 | 0.00 | 0.00 | 97 | 1012.7 |
| 20260903120055 | 53 | 69 | 0.0 | 0.0 | 0.00 | 0.00 | 0.00 | 97 | 1012.7 |
| 20260903114603 | 53 | 69 | 0.0 | 0.0 | 0.00 | 0.00 | 0.00 | 96 | 1012.5 |
| 20260903113047 | 53 | 69 | 0.0 | 0.0 | 0.00 | 0.00 | 0.00 | 96 | 1012.2 |
| 20260903111546 | 53 | 69 | 0.0 | 0.0 | 0.00 | 0.00 | 0.00 | 96 | 1011.9 |
| 20260903110046 | 54 | 69 | 0.0 | 0.0 | 0.00 | 0.00 | 0.00 | 96 | 1012.3 |
| 20260903104544 | 54 | 69 | 0.0 | 0.0 | 0.00 | 0.00 | 0.00 | 96 | 1012.3 |
| 20260903103044 | 54 | 69 | 0.0 | 0.0 | 0.00 | 0.00 | 0.00 | 96 | 1012.1 |
| 20260903101544 | 54 | 69 | 0.0 | 0.0 | 0.00 | 0.00 | 0.00 | 96 | 1012.0 |
| 20260903100042 | 54 | 69 | 0.0 | 0.0 | 0.00 | 0.00 | 0.00 | 96 | 1011.9 |
| 20260903094543 | 54 | 69 | 0.0 | 0.0 | 0.00 | 0.00 | 0.00 | 96 | 1011.9 |
| 20260903093051 | 54 | 69 | 0.0 | 0.0 | 0.00 | 0.00 | 0.00 | 96 | 1011.8 |
| 20260903091538 | 55 | 69 | 0.0 | 0.0 | 0.00 | 0.00 | 0.00 | 96 | 1011.7 |
| 20260903090036 | 55 | 69 | 0.0 | 0.0 | 0.00 | 0.00 | 0.00 | 96 | 1011.7 |
| 20260903084536 | 55 | 69 | 0.0 | 0.0 | 0.00 | 0.00 | 0.00 | 96 | 1011.8 |
| 20260903083033 | 55 | 69 | 0.0 | 0.0 | 0.00 | 0.00 | 0.00 | 96 | 1011.9 |
| 20260903081538 | 56 | 69 | 0.0 | 0.0 | 0.00 | 0.00 | 0.00 | 96 | 1011.9 |
| 20260903080031 | 56 | 69 | 0.0 | 0.0 | 0.00 | 0.00 | 0.00 | 96 | 1011.9 |
| 20260903074607 | 56 | 69 | 0.0 | 0.0 | 0.00 | 0.00 | 0.00 | 96 | 1012.0 |
| 20260903073013 | 56 | 69 | 0.0 | 0.0 | 0.00 | 0.00 | 0.00 | 96 | 1011.8 |
| 20260903071516 | 56 | 69 | 0.0 | 0.0 | 0.00 | 0.00 | 0.00 | 95 | 1012.1 |
| 20260903070015 | 56 | 69 | 0.0 | 0.0 | 0.00 | 0.00 | 0.00 | 95 | 1012.2 |
| 20260903064508 | 56 | 69 | 0.0 | 0.0 | 0.00 | 0.00 | 0.00 | 95 | 1012.3 |
| 20260903063008 | 57 | 69 | 0.0 | 0.0 | 0.00 | 0.00 | 0.00 | 95 | 1012.4 |
| 20260903061505 | 57 | 69 | 0.0 | 0.0 | 0.00 | 0.00 | 0.00 | 95 | 1012.4 |